Location: ????
(30.1475°N, 31.1342°E)
Time: 06:57:55
(UTC+00:00)

Cosmos 1452 Rocket - Pass Details

Date: 27 September 2022
Orbit: 767 x 774 km, 74.1° (Epoch: 28 November)

Event Time Altitude Azimuth Distance (km) Brightness Sun altitude
Rises 02:19:34 0° 181° (S) 3,221 6.6 -19.5°
Reaches altitude 10° 02:22:00 10° 176° (S) 2,299 5.9 -19.0°
Maximum altitude 02:27:01 49° 102° (ESE) 985 4.4 -17.9°
Drops below altitude 10° 02:32:03 10° 28° (NNE) 2,315 6.5 -16.9°
Sets 02:34:30 0° 23° (NNE) 3,246 7.2 -16.3°
